| time (UTC) | temp F | wind direction | speed MPH | gust MPH | rain 1hr in | rain 24hr in | rain mn in | humidity % | barometer mb |
| 20260507020123 | 58 | 302 | 2.0 | 5.0 | 0.01 | 0.20 | 0.20 | 89 | 1008.0 |
| 20260507015144 | 58 | 325 | 2.0 | 4.0 | 0.01 | 0.20 | 0.20 | 89 | 1008.2 |
| 20260507014144 | 59 | 344 | 3.0 | 6.0 | 0.00 | 0.19 | 0.19 | 88 | 1008.3 |
| 20260507013123 | 60 | 306 | 3.0 | 7.0 | 0.00 | 0.19 | 0.19 | 87 | 1008.4 |
| 20260507012147 | 60 | 310 | 3.0 | 5.0 | 0.00 | 0.19 | 0.19 | 89 | 1008.1 |
| 20260507011123 | 61 | 351 | 3.0 | 5.0 | 0.00 | 0.19 | 0.19 | 88 | 1008.1 |
| 20260507010123 | 61 | 315 | 3.0 | 6.0 | 0.00 | 0.19 | 0.19 | 88 | 1008.1 |
| 20260507005123 | 62 | 319 | 3.0 | 6.0 | 0.00 | 0.19 | 0.19 | 89 | 1007.8 |
| 20260507004123 | 62 | 274 | 4.0 | 5.0 | 0.00 | 0.19 | 0.19 | 90 | 1007.8 |
| 20260507003123 | 64 | 295 | 3.0 | 8.0 | 0.00 | 0.19 | 0.19 | 91 | 1007.6 |
| 20260507002123 | 64 | 259 | 2.0 | 5.0 | 0.00 | 0.19 | 0.19 | 91 | 1007.0 |
| 20260507001124 | 64 | 263 | 2.0 | 4.0 | 0.00 | 0.19 | 0.19 | 93 | 1006.8 |
| 20260507000123 | 64 | 256 | 2.0 | 3.0 | 0.00 | 0.19 | 0.19 | 93 | 1006.8 |
| 20260506235147 | 64 | 255 | 2.0 | 3.0 | 0.00 | 0.19 | 0.19 | 93 | 1006.4 |
| 20260506234123 | 64 | 258 | 2.0 | 3.0 | 0.00 | 0.19 | 0.19 | 93 | 1006.3 |
| 20260506233144 | 65 | 254 | 2.0 | 4.0 | 0.00 | 0.19 | 0.19 | 92 | 1006.4 |
| 20260506232123 | 65 | 265 | 2.0 | 4.0 | 0.00 | 0.19 | 0.19 | 91 | 1006.3 |
| 20260506231123 | 65 | 255 | 1.0 | 3.0 | 0.00 | 0.19 | 0.19 | 91 | 1006.3 |
| 20260506230125 | 66 | 283 | 1.0 | 4.0 | 0.00 | 0.19 | 0.19 | 90 | 1006.3 |
| 20260506225123 | 66 | 257 | 1.0 | 3.0 | 0.00 | 0.19 | 0.19 | 90 | 1006.0 |
| 20260506224147 | 66 | 239 | 1.0 | 3.0 | 0.00 | 0.19 | 0.19 | 88 | 1006.0 |
| 20260506223123 | 66 | 266 | 0.0 | 2.0 | 0.00 | 0.19 | 0.19 | 89 | 1006.0 |
| 20260506222127 | 66 | 219 | 0.0 | 3.0 | 0.00 | 0.19 | 0.19 | 90 | 1006.1 |
| 20260506221123 | 66 | 270 | 0.0 | 0.0 | 0.00 | 0.19 | 0.19 | 91 | 1005.6 |
| 20260506220144 | 66 | 270 | 0.0 | 0.0 | 0.00 | 0.19 | 0.19 | 89 | 1005.6 |
| 20260506215123 | 67 | 225 | 0.0 | 0.0 | 0.00 | 0.19 | 0.19 | 88 | 1005.7 |
| 20260506214123 | 67 | 225 | 0.0 | 0.0 | 0.00 | 0.19 | 0.19 | 88 | 1005.8 |
| 20260506213123 | 67 | 244 | 0.0 | 3.0 | 0.00 | 0.19 | 0.19 | 87 | 1005.6 |
| 20260506212125 | 68 | 244 | 2.0 | 4.0 | 0.00 | 0.19 | 0.19 | 84 | 1005.4 |
| 20260506211123 | 67 | 242 | 3.0 | 4.0 | 0.00 | 0.19 | 0.19 | 84 | 1005.4 |
| 20260506210123 | 67 | 243 | 3.0 | 5.0 | 0.00 | 0.19 | 0.19 | 85 | 1005.4 |
| 20260506205123 | 67 | 241 | 3.0 | 4.0 | 0.00 | 0.19 | 0.19 | 85 | 1005.2 |
| 20260506204123 | 67 | 239 | 3.0 | 4.0 | 0.00 | 0.19 | 0.19 | 85 | 1005.3 |
| 20260506203144 | 67 | 240 | 4.0 | 5.0 | 0.00 | 0.19 | 0.19 | 84 | 1005.5 |
| 20260506202127 | 67 | 234 | 3.0 | 5.0 | 0.00 | 0.19 | 0.19 | 85 | 1005.5 |
| 20260506201125 | 67 | 225 | 2.0 | 4.0 | 0.00 | 0.19 | 0.19 | 85 | 1005.4 |
| 20260506200123 | 67 | 239 | 2.0 | 3.0 | 0.00 | 0.19 | 0.19 | 85 | 1005.4 |
| 20260506195144 | 67 | 241 | 2.0 | 4.0 | 0.00 | 0.19 | 0.19 | 85 | 1005.4 |
| 20260506194123 | 66 | 234 | 3.0 | 5.0 | 0.00 | 0.19 | 0.19 | 85 | 1005.6 |
| 20260506193123 | 66 | 238 | 4.0 | 5.0 | 0.00 | 0.19 | 0.19 | 86 | 1005.7 |
| 20260506192123 | 66 | 229 | 4.0 | 7.0 | 0.00 | 0.19 | 0.19 | 86 | 1005.6 |
| 20260506191127 | 66 | 220 | 4.0 | 7.0 | 0.00 | 0.19 | 0.19 | 87 | 1005.7 |
| 20260506190147 | 66 | 223 | 4.0 | 6.0 | 0.00 | 0.19 | 0.19 | 87 | 1005.7 |
| 20260506185123 | 65 | 226 | 3.0 | 4.0 | 0.00 | 0.19 | 0.19 | 89 | 1005.8 |
| 20260506184123 | 65 | 231 | 3.0 | 5.0 | 0.00 | 0.19 | 0.19 | 89 | 1005.8 |
| 20260506183126 | 64 | 228 | 2.0 | 5.0 | 0.00 | 0.19 | 0.19 | 91 | 1005.9 |
| 20260506182123 | 64 | 238 | 3.0 | 4.0 | 0.00 | 0.19 | 0.19 | 92 | 1006.1 |
| 20260506181144 | 63 | 242 | 2.0 | 4.0 | 0.00 | 0.19 | 0.19 | 94 | 1006.2 |
| 20260506180126 | 62 | 237 | 2.0 | 4.0 | 0.00 | 0.19 | 0.19 | 96 | 1006.2 |
| 20260506175123 | 62 | 243 | 2.0 | 3.0 | 0.00 | 0.19 | 0.19 | 96 | 1006.2 |
| 20260506174123 | 62 | 228 | 2.0 | 4.0 | 0.00 | 0.19 | 0.19 | 97 | 1006.3 |
| 20260506173123 | 61 | 237 | 2.0 | 4.0 | 0.00 | 0.19 | 0.19 | 97 | 1006.3 |
| 20260506172148 | 61 | 231 | 3.0 | 4.0 | 0.00 | 0.19 | 0.19 | 98 | 1006.3 |
| 20260506171123 | 61 | 243 | 3.0 | 4.0 | 0.00 | 0.19 | 0.19 | 98 | 1006.3 |
| 20260506170123 | 61 | 240 | 3.0 | 4.0 | 0.00 | 0.19 | 0.19 | 98 | 1006.1 |
| 20260506165125 | 61 | 230 | 1.0 | 3.0 | 0.00 | 0.19 | 0.19 | 99 | 1006.1 |
| 20260506164123 | 61 | 269 | 1.0 | 3.0 | 0.01 | 0.19 | 0.19 | 99 | 1006.1 |
| 20260506163123 | 61 | 257 | 1.0 | 3.0 | 0.01 | 0.19 | 0.19 | 99 | 1006.3 |
| 20260506162144 | 61 | 232 | 1.0 | 4.0 | 0.02 | 0.19 | 0.19 | 99 | 1006.5 |
| 20260506161123 | 61 | 196 | 0.0 | 3.0 | 0.03 | 0.19 | 0.19 | 99 | 1006.5 |
| 20260506160123 | 62 | 278 | 1.0 | 4.0 | 0.05 | 0.19 | 0.19 | 99 | 1006.4 |
| 20260506155123 | 62 | 256 | 1.0 | 3.0 | 0.06 | 0.19 | 0.19 | 99 | 1006.3 |
| 20260506154123 | 61 | 321 | 1.0 | 4.0 | 0.06 | 0.18 | 0.18 | 99 | 1005.6 |
| 20260506153144 | 61 | 289 | 1.0 | 3.0 | 0.07 | 0.18 | 0.18 | 99 | 1006.2 |
| 20260506152123 | 61 | 134 | 0.0 | 3.0 | 0.07 | 0.17 | 0.17 | 99 | 1007.0 |
| 20260506151123 | 61 | 239 | 1.0 | 3.0 | 0.06 | 0.16 | 0.16 | 99 | 1007.0 |
| 20260506150123 | 61 | 140 | 0.0 | 3.0 | 0.06 | 0.14 | 0.14 | 98 | 1007.0 |
| 20260506145123 | 61 | 239 | 1.0 | 4.0 | 0.06 | 0.13 | 0.13 | 98 | 1007.2 |
| 20260506144123 | 61 | 247 | 2.0 | 5.0 | 0.08 | 0.12 | 0.12 | 97 | 1007.2 |
| 20260506143123 | 61 | 272 | 1.0 | 3.0 | 0.08 | 0.11 | 0.11 | 97 | 1006.8 |
| 20260506142123 | 61 | 250 | 1.0 | 4.0 | 0.08 | 0.10 | 0.10 | 97 | 1006.7 |
| 20260506141144 | 61 | 315 | 1.0 | 4.0 | 0.08 | 0.10 | 0.10 | 97 | 1006.7 |
| 20260506140123 | 61 | 281 | 0.0 | 2.0 | 0.06 | 0.08 | 0.08 | 97 | 1006.8 |
| 20260506135123 | 61 | 232 | 1.0 | 3.0 | 0.06 | 0.07 | 0.07 | 96 | 1006.8 |
| 20260506134123 | 61 | 17 | 1.0 | 2.0 | 0.03 | 0.04 | 0.04 | 95 | 1006.9 |
| 20260506133124 | 62 | 270 | 0.0 | 0.0 | 0.02 | 0.03 | 0.03 | 94 | 1006.9 |
| 20260506132144 | 62 | 250 | 0.0 | 2.0 | 0.02 | 0.02 | 0.02 | 92 | 1006.8 |
| 20260506131123 | 62 | 270 | 0.0 | 2.0 | 0.02 | 0.02 | 0.02 | 91 | 1006.9 |
| 20260506130123 | 62 | 231 | 1.0 | 4.0 | 0.02 | 0.02 | 0.02 | 90 | 1006.9 |
| 20260506125123 | 62 | 221 | 2.0 | 4.0 | 0.01 | 0.01 | 0.01 | 89 | 1007.1 |
| 20260506124123 | 62 | 234 | 2.0 | 3.0 | 0.01 | 0.01 | 0.01 | 87 | 1007.2 |
| 20260506123144 | 62 | 230 | 2.0 | 3.0 | 0.01 | 0.01 | 0.01 | 86 | 1007.3 |
| 20260506122122 | 62 | 228 | 3.0 | 5.0 | 0.00 | 0.00 | 0.00 | 86 | 1007.3 |
| 20260506121123 | 62 | 228 | 3.0 | 4.0 | 0.00 | 0.00 | 0.00 | 86 | 1007.2 |
| 20260506120123 | 63 | 223 | 3.0 | 4.0 | 0.00 | 0.00 | 0.00 | 84 | 1007.2 |
| 20260506115123 | 63 | 236 | 3.0 | 5.0 | 0.00 | 0.00 | 0.00 | 82 | 1006.9 |
| 20260506114123 | 64 | 236 | 2.0 | 5.0 | 0.00 | 0.00 | 0.00 | 80 | 1006.7 |
| 20260506113123 | 65 | 272 | 2.0 | 7.0 | 0.00 | 0.00 | 0.00 | 78 | 1006.7 |
| 20260506112123 | 65 | 250 | 2.0 | 4.0 | 0.00 | 0.00 | 0.00 | 78 | 1006.6 |
| 20260506111122 | 65 | 234 | 3.0 | 6.0 | 0.00 | 0.00 | 0.00 | 77 | 1006.5 |
| 20260506110123 | 65 | 223 | 2.0 | 5.0 | 0.00 | 0.00 | 0.00 | 76 | 1006.5 |
| 20260506105144 | 66 | 238 | 2.0 | 4.0 | 0.00 | 0.00 | 0.00 | 75 | 1006.3 |
| 20260506104123 | 66 | 246 | 2.0 | 3.0 | 0.00 | 0.00 | 0.00 | 75 | 1006.3 |
| 20260506103123 | 66 | 254 | 2.0 | 4.0 | 0.00 | 0.00 | 0.00 | 75 | 1006.1 |
| 20260506102143 | 66 | 244 | 2.0 | 5.0 | 0.00 | 0.00 | 0.00 | 75 | 1006.0 |
| 20260506101123 | 66 | 248 | 2.0 | 5.0 | 0.00 | 0.00 | 0.00 | 74 | 1005.8 |
| 20260506100123 | 66 | 223 | 3.0 | 5.0 | 0.00 | 0.00 | 0.00 | 74 | 1005.8 |
| 20260506095144 | 66 | 256 | 2.0 | 7.0 | 0.00 | 0.00 | 0.00 | 74 | 1005.9 |
| 20260506094123 | 66 | 258 | 2.0 | 4.0 | 0.00 | 0.00 | 0.00 | 74 | 1005.8 |
| 20260506093123 | 66 | 335 | 1.0 | 3.0 | 0.00 | 0.00 | 0.00 | 74 | 1006.0 |
| 20260506092123 | 66 | 265 | 1.0 | 3.0 | 0.00 | 0.00 | 0.00 | 74 | 1006.1 |
| 20260506091123 | 66 | 296 | 1.0 | 3.0 | 0.00 | 0.00 | 0.00 | 73 | 1006.3 |
| 20260506090143 | 66 | 256 | 1.0 | 4.0 | 0.00 | 0.00 | 0.00 | 73 | 1006.3 |
| 20260506085123 | 66 | 323 | 1.0 | 3.0 | 0.00 | 0.00 | 0.00 | 73 | 1006.2 |
| 20260506084123 | 66 | 283 | 1.0 | 3.0 | 0.00 | 0.00 | 0.00 | 72 | 1006.2 |
| 20260506083123 | 67 | 281 | 1.0 | 4.0 | 0.00 | 0.00 | 0.00 | 71 | 1006.3 |
| 20260506082123 | 67 | 260 | 2.0 | 3.0 | 0.00 | 0.00 | 0.00 | 71 | 1006.1 |
| 20260506081123 | 68 | 253 | 2.0 | 4.0 | 0.00 | 0.00 | 0.00 | 69 | 1006.2 |
| 20260506080123 | 68 | 247 | 2.0 | 4.0 | 0.00 | 0.00 | 0.00 | 68 | 1006.2 |
| 20260506073123 | 69 | 261 | 2.0 | 5.0 | 0.00 | 0.00 | 0.00 | 67 | 1006.4 |
| 20260506072122 | 69 | 252 | 2.0 | 6.0 | 0.00 | 0.00 | 0.00 | 66 | 1006.4 |
| 20260506071123 | 69 | 232 | 3.0 | 7.0 | 0.00 | 0.00 | 0.00 | 65 | 1006.5 |
| 20260506070123 | 69 | 238 | 2.0 | 4.0 | 0.00 | 0.00 | 0.00 | 65 | 1006.5 |
| 20260506062123 | 69 | 241 | 2.0 | 4.0 | 0.00 | 0.00 | 0.00 | 64 | 1007.1 |
| 20260506061123 | 69 | 214 | 2.0 | 5.0 | 0.00 | 0.00 | 0.00 | 64 | 1007.2 |
| 20260506060122 | 69 | 232 | 3.0 | 6.0 | 0.00 | 0.00 | 0.00 | 64 | 1007.2 |
| 20260506051123 | 67 | 297 | 1.0 | 3.0 | 0.00 | 0.00 | 0.00 | 63 | 1007.4 |
| 20260506050122 | 67 | 347 | 1.0 | 3.0 | 0.00 | 0.00 | 0.00 | 63 | 1007.4 |
| 20260506045123 | 67 | 37 | 0.0 | 3.0 | 0.00 | 0.00 | 0.00 | 63 | 1007.5 |
| 20260506044144 | 67 | 257 | 1.0 | 3.0 | 0.00 | 0.00 | 0.00 | 62 | 1007.4 |
| 20260506043123 | 67 | 262 | 1.0 | 3.0 | 0.00 | 0.00 | 0.00 | 62 | 1007.5 |
| 20260506042123 | 67 | 308 | 1.0 | 4.0 | 0.00 | 0.00 | 0.00 | 61 | 1007.5 |
| 20260506041123 | 67 | 8 | 1.0 | 3.0 | 0.00 | 0.00 | 0.00 | 60 | 1007.5 |
| 20260506040122 | 67 | 17 | 1.0 | 3.0 | 0.00 | 0.00 | 0.00 | 60 | 1007.5 |
| 20260506035122 | 66 | 8 | 1.0 | 3.0 | 0.00 | 0.00 | 0.00 | 59 | 1007.6 |
| 20260506034143 | 66 | 23 | 0.0 | 2.0 | 0.00 | 0.00 | 0.00 | 58 | 1007.6 |
| 20260506033123 | 67 | 27 | 0.0 | 2.0 | 0.00 | 0.00 | 0.00 | 57 | 1007.4 |
| 20260506032123 | 67 | 359 | 0.0 | 2.0 | 0.00 | 0.00 | 0.00 | 57 | 1007.6 |
| 20260506031122 | 67 | 339 | 0.0 | 1.0 | 0.00 | 0.00 | 0.00 | 56 | 1007.6 |
| 20260506030123 | 68 | 270 | 0.0 | 0.0 | 0.00 | 0.00 | 0.00 | 55 | 1007.6 |
| 20260506025144 | 68 | 67 | 0.0 | 2.0 | 0.00 | 0.00 | 0.00 | 53 | 1007.6 |
| 20260506024123 | 69 | 49 | 0.0 | 2.0 | 0.00 | 0.00 | 0.00 | 51 | 1007.6 |
| 20260506023122 | 69 | 312 | 0.0 | 2.0 | 0.00 | 0.00 | 0.00 | 50 | 1007.3 |
| 20260506022123 | 70 | 274 | 0.0 | 3.0 | 0.00 | 0.00 | 0.00 | 49 | 1007.4 |
| 20260506021123 | 71 | 269 | 1.0 | 3.0 | 0.00 | 0.00 | 0.00 | 49 | 1007.4 |